Location: Gleizolles
(44.4833°N, 6.7667°E)
Time: 06:25:10
(UTC+00:00)

PCSat - Pass Details

Date: 13 December 2022
Orbit: 785 x 793 km, 67.0° (Epoch: 27 January)

Event Time Altitude Azimuth Distance (km) Brightness Sun altitude
Rises 16:36:52 0° 210° (SSW) 3,266 13.8 -7.6°
Reaches altitude 10° 16:39:16 10° 210° (SSW) 2,342 12.9 -8.0°
Maximum altitude 16:44:39 89° 298° (WNW) 795 9.6 -8.9°
Drops below altitude 10° 16:50:06 10° 31° (NNE) 2,363 11.5 -9.8°
Enters shadow 16:50:52 - 32° (NNE) 2,659 11.8 -9.9°
